Location: Arbon
(43.0005°N, 0.7472°E)
Time: 08:33:30
(UTC+00:00)

SL-8 R/B - Pass Details

Date: 22 April 2026
Orbit: 646 x 656 km, 48.4° (Epoch: 15 May)

Event Time Altitude Azimuth Distance (km) Brightness Sun altitude
Rises 20:24:23 0° 257° (WSW) 2,956 7.7 -16.6°
Reaches altitude 10° 20:26:45 10° 261° (W) 2,046 6.8 -16.9°
Maximum altitude 20:31:25 60° 342° (NNW) 740 4.1 -17.6°
Drops below altitude 10° 20:36:05 10° 63° (ENE) 2,046 6.0 -18.3°
Enters shadow 20:36:09 10° 63° (ENE) 2,071 6.0 -18.3°
